Location: Unspecified
(50.0000°N, 15.0000°E)
Time: 05:08:01
(UTC+02:00)

ISS - Pass Details

Date: 19 September 2021
Orbit: 417 x 423 km, 51.6° (Epoch: 28 October)

Event Time Altitude Azimuth Distance (km) Brightness Sun altitude
Rises 21:36:32 0° 258° (WSW) 2,362 0.7 -23.8°
Reaches altitude 10° 21:38:37 10° 260° (W) 1,500 -0.4 -24.1°
Enters shadow 21:40:30 30° 265° (W) 774 -2.0 -24.3°
